Weather History for Frenchville, ME

Change the Weather History Date:

Friday, January 13, 2012

  Actual Average Record
Temperature  
Mean Temperature 23 °F 9 °F  
Max Temperature 32 °F 17 °F 41 °F (2006)
Min Temperature 13 °F 0 °F -17 °F (1999)
Degree Days  
Heating Degree Days 42    
Month to date heating degree days 699  
Since 1 July heating degree days 3989  
Cooling Degree Days 0    
Month to date cooling degree days 0  
Year to date cooling degree days 0  
Moisture  
Dew Point 24 °F    
Average Humidity 96    
Maximum Humidity 100    
Minimum Humidity 86    
Precipitation  
Precipitation 0.22 in 0.05 in 0.22 in (2012)
Month to date precipitation 0.63 1.24  
Year to date precipitation 0.63 1.24  
Sea Level Pressure  
Sea Level Pressure 29.19 in    
Wind  
Wind Speed 9 mph (East)    
Max Wind Speed 28 mph    
Max Gust Speed 38 mph    
Visibility 3 miles    
Events Fog , Rain , Snow    
T = Trace of Precipitation, MM = Missing Value Source: NWS Daily Summary

Daily Weather History Graph

Daily Weather History Graph

Search for Another Location

Airport:

Trip Planner

Search our weather history database for the weather conditions in past years. The results will help you decide how hot, cold, wet, or windy it might be!

Date:

Astronomy

Jan. 13, 2012 Rise Set
Actual Time 7:17 AM EST 4:06 PM EST
Civil Twilight 6:42 AM EST 4:41 PM EST
Nautical Twilight 6:04 AM EST 5:19 PM EST
Astronomical Twilight 5:27 AM EST 5:56 PM EST
Moon 9:40 PM EST (1/13) 9:07 AM EST (1/13)
Length of Visible Light 9h 59m
Length of Day
8h 49m
Waning Gibbous, 79% of the Moon is Illuminated
Jan 13
Waning Gibbous
Jan 16
Last Quarter
Jan 23
New
Jan 30
First Quarter
Feb 7
Full

Hourly Weather History & Observations

Time (EST) Temp. Windchill Dew Point Humidity Pressure Visibility Wind Dir Wind Speed Gust Speed Precip Events Conditions
12:53 AM 14.0 °F 2.9 °F 12.0 °F 92% 29.67 in 1.0 mi NE 8.1 mph - 0.01 in Snow Light Snow
1:28 AM 15.8 °F 6.1 °F 12.2 °F 86% 29.60 in 1.5 mi NE 6.9 mph - 0.00 in Snow Light Snow
1:38 AM 15.8 °F 5.1 °F 12.2 °F 86% 29.60 in 2.0 mi NE 8.1 mph - 0.00 in Snow Light Snow
1:53 AM 16.0 °F 6.3 °F 12.9 °F 88% 29.66 in 1.8 mi ENE 6.9 mph - 0.00 in Snow Light Snow
2:15 AM 15.8 °F 6.1 °F 12.2 °F 86% 29.60 in 2.0 mi NE 6.9 mph - 0.00 in Snow Light Snow
2:53 AM 17.1 °F 7.6 °F 14.0 °F 88% 29.62 in 2.0 mi NE 6.9 mph - 0.00 in Snow Light Snow
3:14 AM 17.6 °F 7.3 °F 14.0 °F 86% 29.56 in 3.0 mi ENE 8.1 mph - 0.00 in Snow Light Snow
3:53 AM 17.1 °F 6.6 °F 15.1 °F 92% 29.58 in 4.0 mi ENE 8.1 mph - 0.00 in   Overcast
4:37 AM 17.6 °F 9.3 °F 15.8 °F 93% 29.51 in 2.5 mi ENE 5.8 mph - 0.00 in Snow Light Snow
4:44 AM 17.6 °F 9.3 °F 15.8 °F 93% 29.51 in 1.5 mi ENE 5.8 mph - 0.00 in Snow Light Snow
4:53 AM 18.0 °F 9.8 °F 16.0 °F 92% 29.56 in 1.8 mi ENE 5.8 mph - 0.00 in Snow Light Snow
5:07 AM 17.6 °F 9.3 °F 15.8 °F 93% 29.50 in 2.0 mi ENE 5.8 mph - 0.00 in Snow Light Snow
5:18 AM 17.6 °F 9.3 °F 15.8 °F 93% 29.50 in 4.0 mi ENE 5.8 mph - 0.00 in   Overcast
5:53 AM 19.0 °F 11.1 °F 17.1 °F 92% 29.53 in 10.0 mi ENE 5.8 mph - 0.00 in   Overcast
6:22 AM 19.4 °F 14.3 °F 17.6 °F 93% 29.48 in 10.0 mi East 3.5 mph - N/A   Overcast
6:53 AM 19.0 °F 11.1 °F 18.0 °F 96% 29.52 in 8.0 mi East 5.8 mph - 0.00 in Snow Light Snow
7:16 AM 19.4 °F 14.3 °F 17.6 °F 93% 29.46 in 1.8 mi Variable 3.5 mph - 0.00 in Snow Light Snow
7:23 AM 19.4 °F 12.8 °F 17.6 °F 93% 29.46 in 1.5 mi ENE 4.6 mph - 0.00 in Snow Light Snow
7:31 AM 19.4 °F 11.5 °F 17.6 °F 93% 29.46 in 1.0 mi East 5.8 mph - 0.00 in Snow Light Snow
7:40 AM 19.4 °F 12.8 °F 17.6 °F 93% 29.46 in 0.8 mi East 4.6 mph - 0.00 in Snow Light Snow
7:53 AM 19.9 °F 13.4 °F 18.0 °F 92% 29.51 in 0.5 mi East 4.6 mph - 0.01 in Fog , Snow Snow
8:03 AM 19.4 °F 12.8 °F 17.6 °F 93% 29.45 in 0.8 mi East 4.6 mph - 0.00 in Snow Light Snow
8:25 AM 19.4 °F 11.5 °F 17.6 °F 93% 29.45 in 1.0 mi East 5.8 mph - 0.00 in Snow Light Snow
8:41 AM 19.4 °F 10.4 °F 19.4 °F 100% 29.44 in 1.2 mi East 6.9 mph - 0.00 in   Overcast
8:45 AM 19.4 °F 9.5 °F 17.6 °F 93% 29.43 in 1.8 mi East 8.1 mph - 0.00 in   Overcast
8:51 AM 19.4 °F 10.4 °F 19.4 °F 100% 29.43 in 3.0 mi ESE 6.9 mph - 0.00 in   Overcast
8:53 AM 19.9 °F 11.1 °F 19.0 °F 96% 29.48 in 3.0 mi ESE 6.9 mph - 0.00 in   Overcast
8:57 AM 19.4 °F 9.5 °F 19.4 °F 100% 29.43 in 2.5 mi ESE 8.1 mph - N/A Snow Light Snow
9:16 AM 19.4 °F 10.4 °F 19.4 °F 100% 29.43 in 5.0 mi SE 6.9 mph - 0.00 in   Overcast
9:33 AM 21.2 °F 14.9 °F 19.4 °F 93% 29.43 in 4.0 mi SE 4.6 mph - 0.00 in   Overcast
9:53 AM 19.9 °F 13.4 °F 19.0 °F 96% 29.47 in 9.0 mi SE 4.6 mph - 0.00 in   Overcast
10:24 AM 21.2 °F 16.4 °F 19.4 °F 93% 29.39 in 3.0 mi ESE 3.5 mph - N/A   Overcast
10:53 AM 21.9 °F 17.2 °F 21.0 °F 96% 29.40 in 10.0 mi East 3.5 mph - N/A   Overcast
11:53 AM 23.0 °F 17.0 °F 21.9 °F 96% 29.34 in 10.0 mi East 4.6 mph - N/A   Overcast
12:53 PM 25.0 °F 17.1 °F 24.1 °F 96% 29.30 in 3.0 mi SE 6.9 mph - N/A   Overcast
12:57 PM 24.8 °F 16.9 °F 24.8 °F 100% 29.25 in 1.8 mi East 6.9 mph - N/A   Overcast
1:07 PM 24.8 °F 19.1 °F 24.8 °F 100% 29.24 in 1.5 mi ESE 4.6 mph - N/A   Overcast
1:28 PM 24.8 °F 17.9 °F 24.8 °F 100% 29.23 in 2.0 mi SE 5.8 mph - N/A   Overcast
1:53 PM 25.0 °F 16.3 °F 25.0 °F 100% 29.26 in 1.8 mi ESE 8.1 mph - N/A   Overcast
1:59 PM 26.6 °F 19.1 °F 24.8 °F 93% 29.22 in 1.2 mi ESE 6.9 mph - N/A   Overcast
2:21 PM 26.6 °F 18.2 °F 24.8 °F 93% 29.19 in 0.8 mi East 8.1 mph - 0.00 in   Mist
2:50 PM 26.6 °F 17.5 °F 26.6 °F 100% 29.15 in 0.2 mi East 9.2 mph - 0.00 in Fog , Rain Light Freezing Rain
2:53 PM 26.1 °F 16.2 °F 26.1 °F 100% 29.18 in 0.2 mi East 10.4 mph - 0.00 in Fog , Rain Light Freezing Rain
3:53 PM 28.0 °F 18.6 °F 28.0 °F 100% 29.11 in 0.2 mi ENE 10.4 mph - 0.01 in Fog , Rain Light Freezing Rain
4:10 PM 28.4 °F 19.1 °F 28.4 °F 100% 29.03 in 1.5 mi ENE 10.4 mph - 0.02 in Rain Light Freezing Rain
4:12 PM 28.4 °F 18.5 °F 28.4 °F 100% 29.03 in 2.0 mi ENE 11.5 mph - 0.02 in Rain Light Freezing Rain
4:21 PM 28.4 °F 17.5 °F 28.4 °F 100% 29.02 in 4.0 mi ENE 13.8 mph 20.7 mph 0.04 in Rain Light Freezing Rain
4:32 PM 28.4 °F 18.5 °F 28.4 °F 100% 29.00 in 9.0 mi ENE 11.5 mph 21.9 mph 0.05 in Rain Light Freezing Rain
4:53 PM 30.0 °F 21.7 °F 28.9 °F 96% 29.03 in 3.0 mi East 9.2 mph 18.4 mph 0.09 in Rain Light Freezing Rain
5:02 PM 30.2 °F 21.3 °F 28.4 °F 93% 28.99 in 6.0 mi East 10.4 mph - 0.00 in Rain Light Freezing Rain
5:48 PM 30.2 °F 21.9 °F 30.2 °F 100% 28.96 in 1.8 mi East 9.2 mph - 0.03 in Snow Light Snow
5:53 PM 30.0 °F 21.7 °F 28.9 °F 96% 28.98 in 1.5 mi East 9.2 mph - 0.04 in Snow Light Snow
5:57 PM 30.2 °F 21.3 °F 28.4 °F 93% 28.95 in 2.0 mi East 10.4 mph - 0.00 in Snow Light Snow
6:05 PM 30.2 °F 21.3 °F 30.2 °F 100% 28.94 in 9.0 mi East 10.4 mph - 0.00 in   Overcast
6:08 PM 30.2 °F 21.9 °F 30.2 °F 100% 28.94 in 9.0 mi East 9.2 mph - 0.00 in   Overcast
6:19 PM 30.2 °F 20.8 °F 30.2 °F 100% 28.94 in 4.0 mi ENE 11.5 mph - 0.01 in   Overcast
6:36 PM 30.2 °F 21.3 °F 30.2 °F 100% 28.92 in 2.5 mi East 10.4 mph - 0.01 in Snow Light Snow
6:43 PM 30.2 °F 21.3 °F 30.2 °F 100% 28.92 in 6.0 mi ENE 10.4 mph 18.4 mph 0.01 in   Overcast
6:53 PM 30.9 °F 22.2 °F 30.0 °F 96% 28.94 in 9.0 mi East 10.4 mph - 0.01 in   Overcast
7:01 PM 30.2 °F 20.8 °F 30.2 °F 100% 28.90 in 6.0 mi East 11.5 mph - N/A   Overcast
7:08 PM 30.2 °F 21.3 °F 30.2 °F 100% 28.90 in 1.8 mi East 10.4 mph - N/A   Overcast
7:10 PM 30.2 °F 21.3 °F 30.2 °F 100% 28.90 in 1.2 mi East 10.4 mph - N/A   Overcast
7:20 PM 30.2 °F 20.2 °F 30.2 °F 100% 28.89 in 0.8 mi East 12.7 mph - N/A   Mist
7:53 PM 32.0 °F 24.2 °F 32.0 °F 100% 28.90 in 1.0 mi ESE 9.2 mph - 0.00 in Snow Light Snow
8:03 PM 32.0 °F 22.1 °F 32.0 °F 100% 28.87 in 1.8 mi SE 13.8 mph - 0.00 in Snow Light Snow
8:11 PM 32.0 °F 23.0 °F 32.0 °F 100% 28.86 in 2.0 mi SE 11.5 mph - 0.01 in Snow Light Snow
8:15 PM 32.0 °F 24.2 °F 32.0 °F 100% 28.86 in 1.5 mi SSE 9.2 mph - 0.01 in Snow Light Snow
8:24 PM 32.0 °F 23.0 °F 32.0 °F 100% 28.86 in 1.2 mi SSE 11.5 mph 18.4 mph 0.01 in Snow Light Snow
8:36 PM 32.0 °F 23.6 °F 32.0 °F 100% 28.85 in 0.5 mi SSE 10.4 mph - 0.03 in Fog , Snow Snow
8:53 PM 32.0 °F 24.2 °F 32.0 °F 100% 28.87 in 0.5 mi South 9.2 mph - 0.04 in Fog , Snow Snow
9:24 PM 32.0 °F 23.0 °F 30.2 °F 93% 28.83 in 1.5 mi South 11.5 mph 20.7 mph 0.01 in Snow Light Snow
9:28 PM 30.2 °F 20.8 °F 30.2 °F 100% 28.83 in 2.0 mi South 11.5 mph - 0.01 in Snow Light Snow
9:51 PM 30.2 °F 20.8 °F 30.2 °F 100% 28.83 in 4.0 mi SSW 11.5 mph 20.7 mph 0.01 in Snow Light Snow
9:53 PM 30.2 °F 20.8 °F 30.2 °F 100% 28.83 in 5.0 mi SSW 11.5 mph - N/A Snow Light Snow
10:07 PM 30.2 °F 20.2 °F 28.4 °F 93% 28.84 in 2.5 mi SW 12.7 mph 20.7 mph 0.00 in Snow Light Snow
10:15 PM 30.2 °F 20.2 °F 28.4 °F 93% 28.84 in 9.0 mi WSW 12.7 mph - 0.00 in   Overcast
10:53 PM 28.0 °F 18.1 °F 27.0 °F 96% 28.89 in 1.8 mi WSW 11.5 mph - 0.00 in Snow Light Snow
11:01 PM 26.6 °F 14.3 °F 26.6 °F 100% 28.87 in 1.5 mi West 16.1 mph 20.7 mph 0.00 in Snow Light Snow
11:07 PM 26.6 °F 13.8 °F 26.6 °F 100% 28.87 in 2.0 mi West 17.3 mph 23.0 mph 0.00 in Snow Light Snow
11:16 PM 26.6 °F 13.1 °F 24.8 °F 93% 28.88 in 2.5 mi West 19.6 mph 24.2 mph 0.00 in Snow Light Snow
11:26 PM 26.6 °F 14.7 °F 24.8 °F 93% 28.88 in 3.0 mi West 15.0 mph 26.5 mph 0.00 in Snow Light Snow
11:53 PM 26.1 °F 10.1 °F 23.0 °F 88% 28.93 in 4.0 mi WNW 27.6 mph 38.0 mph 0.00 in   Overcast